KA5FVT Weather Reports


Display with metric or nautical units.
time (UTC)temp
F
wind
direction
speed
MPH
gust
MPH
rain 1hr
in
rain 24hr
in
rain mn
in
humidity
%
barometer
mb
20260905174457 92 254 0.0 2.0 0.00 0.00 0.00 61 1013.4
20260905173956 92 254 1.0 2.0 0.00 0.00 0.00 61 1013.4
20260905173456 92 254 0.0 2.0 0.00 0.00 0.00 63 1013.6
20260905172956 91 254 0.0 2.0 0.00 0.00 0.00 62 1013.7
20260905172459 91 253 2.0 2.0 0.00 0.00 0.00 63 1013.6
20260905171957 90 239 0.0 2.0 0.00 0.00 0.00 66 1013.6
20260905171456 90 235 0.0 1.0 0.00 0.00 0.00 66 1013.6
20260905170956 90 235 0.0 2.0 0.00 0.00 0.00 66 1013.7
20260905170456 90 229 1.0 2.0 0.00 0.00 0.00 66 1013.8
20260905165956 91 229 0.0 2.0 0.00 0.00 0.00 66 1013.9
20260905165456 91 229 0.0 2.0 0.00 0.00 0.00 65 1013.9
20260905164957 91 229 2.0 2.0 0.00 0.00 0.00 65 1013.8
20260905164456 91 205 0.0 2.0 0.00 0.00 0.00 66 1013.7
20260905163956 90 205 0.0 2.0 0.00 0.00 0.00 69 1013.8
20260905163456 90 205 0.0 2.0 0.00 0.00 0.00 68 1013.9
20260905162956 89 263 0.0 1.0 0.00 0.00 0.00 70 1013.9
20260905162456 88 263 0.0 0.0 0.00 0.00 0.00 73 1013.9
20260905161956 88 263 0.0 0.0 0.00 0.00 0.00 74 1013.9
20260905161456 87 263 0.0 0.0 0.00 0.00 0.00 70 1013.8
20260905160957 87 263 0.0 0.0 0.00 0.00 0.00 76 1013.9
20260905160456 87 263 0.0 1.0 0.00 0.00 0.00 75 1013.9
20260905155956 87 263 0.0 1.0 0.00 0.00 0.00 75 1013.9
20260905155456 87 263 0.0 0.0 0.00 0.00 0.00 75 1013.9
20260905154956 87 263 0.0 0.0 0.00 0.00 0.00 75 1014.0
20260905154456 87 263 0.0 0.0 0.00 0.00 0.00 76 1014.0
20260905153956 87 263 0.0 2.0 0.00 0.00 0.00 76 1013.8
20260905153456 86 263 0.0 1.0 0.00 0.00 0.00 77 1013.8
20260905152957 86 263 0.0 0.0 0.00 0.00 0.00 79 1014.0
20260905152456 86 263 0.0 0.0 0.00 0.00 0.00 79 1013.8
20260905151959 86 263 0.0 0.0 0.00 0.00 0.00 80 1014.0
20260905151456 85 263 0.0 2.0 0.00 0.00 0.00 81 1014.1
20260905150956 85 231 0.0 0.0 0.00 0.00 0.00 82 1013.9
20260905150456 85 231 0.0 0.0 0.00 0.00 0.00 83 1014.0
20260905145956 85 231 0.0 2.0 0.00 0.00 0.00 84 1014.0
20260905145456 85 200 0.0 0.0 0.00 0.00 0.00 85 1014.0
20260905144957 84 200 0.0 1.0 0.00 0.00 0.00 85 1014.0
20260905144459 84 186 0.0 0.0 0.00 0.00 0.00 85 1013.9
20260905143956 84 186 0.0 0.0 0.00 0.00 0.00 87 1013.8
20260905143456 83 186 0.0 0.0 0.00 0.00 0.00 87 1013.7
20260905142957 83 186 0.0 0.0 0.00 0.00 0.00 88 1013.7
20260905142456 83 186 0.0 0.0 0.00 0.00 0.00 88 1013.9
20260905141956 82 187 0.0 0.0 0.00 0.00 0.00 90 1013.7
20260905141457 82 188 0.0 2.0 0.00 0.00 0.00 90 1013.8
20260905140956 82 188 0.0 0.0 0.00 0.00 0.00 91 1013.8
20260905140456 81 188 0.0 1.0 0.00 0.00 0.00 91 1013.8
20260905135959 81 188 0.0 0.0 0.00 0.00 0.00 92 1013.8
20260905135456 81 188 0.0 0.0 0.00 0.00 0.00 93 1013.7
20260905134956 80 188 0.0 0.0 0.00 0.00 0.00 93 1013.8
20260905134459 80 188 0.0 0.0 0.00 0.00 0.00 94 1013.8
20260905133956 79 188 0.0 0.0 0.00 0.00 0.00 95 1013.7
20260905133456 79 188 0.0 0.0 0.00 0.00 0.00 95 1013.6
20260905132956 79 188 0.0 0.0 0.00 0.00 0.00 95 1013.6
20260905132456 79 188 0.0 0.0 0.00 0.00 0.00 95 1013.5
20260905131956 78 188 0.0 0.0 0.00 0.00 0.00 95 1013.6
20260905131459 78 188 0.0 0.0 0.00 0.00 0.00 95 1013.6
20260905130956 78 188 0.0 0.0 0.00 0.00 0.00 95 1013.5
20260905130456 78 188 0.0 0.0 0.00 0.00 0.00 95 1013.5
20260905125956 78 188 0.0 0.0 0.00 0.00 0.00 95 1013.5
20260905125456 78 188 0.0 0.0 0.00 0.00 0.00 95 1013.5
20260905124956 78 188 0.0 0.0 0.00 0.00 0.00 95 1013.4
20260905124456 77 188 0.0 0.0 0.00 0.00 0.00 95 1013.4
20260905123956 77 188 0.0 0.0 0.00 0.00 0.00 95 1013.3
20260905123459 77 188 0.0 0.0 0.00 0.00 0.00 95 1013.3
20260905122956 77 188 0.0 0.0 0.00 0.00 0.00 94 1013.3
20260905122456 77 188 0.0 0.0 0.00 0.00 0.00 94 1013.2
20260905121956 77 188 0.0 0.0 0.00 0.00 0.00 94 1013.0
20260905121459 77 188 0.0 0.0 0.00 0.00 0.00 94 1013.0
20260905120956 78 188 0.0 0.0 0.00 0.00 0.00 94 1012.8
20260905120459 78 188 0.0 0.0 0.00 0.00 0.00 94 1012.9
20260905115956 78 188 0.0 0.0 0.00 0.00 0.00 94 1012.9
20260905115456 78 188 0.0 0.0 0.00 0.00 0.00 94 1012.9
20260905114956 78 188 0.0 0.0 0.00 0.00 0.00 94 1012.9
20260905114456 78 188 0.0 0.0 0.00 0.00 0.00 94 1012.8
20260905113956 78 188 0.0 0.0 0.00 0.00 0.00 94 1012.8
20260905113459 78 188 0.0 0.0 0.00 0.00 0.00 94 1012.7
20260905112956 78 188 0.0 0.0 0.00 0.00 0.00 94 1012.7
20260905112456 78 188 0.0 0.0 0.00 0.00 0.00 94 1012.6
20260905111956 78 188 0.0 0.0 0.00 0.00 0.00 94 1012.6
20260905111456 78 188 0.0 0.0 0.00 0.00 0.00 94 1012.5
20260905110956 78 188 0.0 0.0 0.00 0.00 0.00 94 1012.5
20260905110456 78 188 0.0 0.0 0.00 0.00 0.00 94 1012.5
20260905105956 78 188 0.0 0.0 0.00 0.00 0.00 94 1012.4
20260905105456 78 188 0.0 0.0 0.00 0.00 0.00 94 1012.3
20260905104956 78 188 0.0 0.0 0.00 0.00 0.00 94 1012.3
20260905104457 78 188 0.0 0.0 0.00 0.00 0.00 94 1012.2
20260905103956 78 188 0.0 0.0 0.00 0.00 0.00 94 1012.4
20260905103456 78 188 0.0 0.0 0.00 0.00 0.00 94 1012.3
20260905102956 78 188 0.0 0.0 0.00 0.00 0.00 94 1012.3
20260905102459 78 188 0.0 0.0 0.00 0.00 0.00 94 1012.3
20260905101956 78 188 0.0 0.0 0.00 0.00 0.00 94 1012.3
20260905101456 78 188 0.0 0.0 0.00 0.00 0.00 94 1012.3
20260905100956 78 188 0.0 0.0 0.00 0.01 0.00 94 1012.3
20260905100456 78 188 0.0 0.0 0.00 0.01 0.00 94 1012.2
20260905095956 78 188 0.0 0.0 0.00 0.01 0.00 94 1012.3
20260905095459 78 188 0.0 0.0 0.00 0.01 0.00 94 1012.2
20260905094956 78 188 0.0 0.0 0.00 0.01 0.00 94 1012.2
20260905094456 78 188 0.0 0.0 0.00 0.01 0.00 93 1012.2
20260905093956 78 188 0.0 0.0 0.00 0.01 0.00 93 1012.1
20260905093456 78 188 0.0 0.0 0.00 0.01 0.00 93 1012.2
20260905092956 78 188 0.0 0.0 0.00 0.01 0.00 93 1012.2
20260905092456 78 188 0.0 0.0 0.00 0.01 0.00 93 1012.2
20260905091959 78 188 0.0 0.0 0.00 0.01 0.00 93 1012.2
20260905091456 78 188 0.0 0.0 0.00 0.01 0.00 93 1012.2
20260905090956 78 188 0.0 0.0 0.00 0.01 0.00 93 1012.2
20260905090456 78 188 0.0 0.0 0.00 0.01 0.00 93 1012.2
20260905090000 79 188 0.0 0.0 0.00 0.01 0.00 93 1012.2
20260905085456 79 188 0.0 0.0 0.00 0.01 0.00 93 1012.2
20260905084956 79 188 0.0 0.0 0.00 0.01 0.00 92 1012.2
20260905084456 79 188 0.0 0.0 0.00 0.01 0.00 92 1012.2
20260905083956 79 188 0.0 0.0 0.00 0.01 0.00 92 1012.2
20260905083456 79 188 0.0 0.0 0.00 0.01 0.00 92 1012.2
20260905082956 79 188 0.0 0.0 0.00 0.01 0.00 92 1012.2
20260905082456 79 188 0.0 0.0 0.00 0.01 0.00 92 1012.1
20260905081956 79 188 0.0 0.0 0.00 0.01 0.00 92 1012.2
20260905081456 79 188 0.0 0.0 0.00 0.01 0.00 92 1012.1
20260905080956 79 188 0.0 0.0 0.00 0.01 0.00 92 1012.1
20260905080456 79 188 0.0 0.0 0.00 0.01 0.00 92 1012.2
20260905075956 79 188 0.0 0.0 0.00 0.01 0.00 92 1012.1
20260905075456 79 188 0.0 0.0 0.00 0.01 0.00 92 1012.2
20260905074956 79 188 0.0 0.0 0.00 0.01 0.00 92 1012.3
20260905074456 79 188 0.0 0.0 0.00 0.01 0.00 91 1012.4
20260905073956 79 188 0.0 0.0 0.00 0.01 0.00 91 1012.5
20260905073456 79 188 0.0 0.0 0.00 0.01 0.00 91 1012.4
20260905072956 79 188 0.0 0.0 0.00 0.01 0.00 91 1012.5
20260905072456 79 188 0.0 0.0 0.00 0.01 0.00 91 1012.6
20260905071956 80 188 0.0 0.0 0.00 0.01 0.00 91 1012.7
20260905071457 80 188 0.0 0.0 0.00 0.01 0.00 91 1012.7
20260905070956 80 188 0.0 0.0 0.00 0.01 0.00 90 1012.6
20260905070456 80 188 0.0 0.0 0.00 0.01 0.00 90 1012.6
20260905065956 80 188 0.0 0.0 0.00 0.01 0.00 90 1012.6
20260905065456 80 188 0.0 0.0 0.00 0.01 0.00 90 1012.6
20260905064956 80 188 0.0 0.0 0.00 0.01 0.00 90 1012.6
20260905064456 80 188 0.0 0.0 0.00 0.01 0.00 90 1012.7
20260905063957 80 188 0.0 0.0 0.00 0.01 0.00 90 1012.8
20260905063456 80 188 0.0 0.0 0.00 0.01 0.00 90 1012.8
20260905062956 80 188 0.0 0.0 0.00 0.01 0.00 90 1012.7
20260905062456 80 188 0.0 0.0 0.00 0.01 0.00 89 1012.8
20260905061956 80 188 0.0 0.0 0.00 0.01 0.00 89 1012.8
20260905061456 80 188 0.0 0.0 0.00 0.01 0.00 89 1012.8
20260905060956 80 188 0.0 0.0 0.00 0.01 0.00 89 1013.0
20260905060457 80 188 0.0 0.0 0.00 0.01 0.00 89 1013.0
20260905055959 80 188 0.0 0.0 0.00 0.01 0.00 89 1013.0
20260905055456 81 188 0.0 0.0 0.00 0.01 0.00 88 1012.9
20260905054956 81 188 0.0 0.0 0.00 0.01 0.00 88 1012.9
20260905054456 81 188 0.0 0.0 0.00 0.01 0.00 88 1012.9
20260905053956 81 188 0.0 0.0 0.00 0.01 0.00 88 1012.9
20260905053456 81 188 0.0 0.0 0.00 0.01 0.00 88 1012.9
20260905052959 81 188 0.0 0.0 0.00 0.01 0.00 88 1012.9
20260905052456 81 188 0.0 0.0 0.00 0.01 0.00 88 1013.0
20260905051956 81 188 0.0 0.0 0.00 0.01 0.00 87 1013.0
20260905051456 81 188 0.0 0.0 0.00 0.01 0.00 87 1013.1
20260905050956 81 188 0.0 0.0 0.00 0.01 0.00 87 1013.1
20260905050459 81 188 0.0 0.0 0.00 0.01 0.00 87 1013.1
20260905045956 81 188 0.0 0.0 0.00 0.01 0.00 87 1013.0
20260905045459 81 188 0.0 0.0 0.00 0.01 0.00 87 1013.0
20260905044956 81 188 0.0 0.0 0.00 0.01 0.00 86 1013.0
20260905044456 81 188 0.0 0.0 0.00 0.01 0.00 86 1013.0
20260905043956 81 188 0.0 0.0 0.00 0.01 0.00 86 1013.0
20260905043456 81 188 0.0 0.0 0.00 0.01 0.00 86 1013.0
20260905042959 81 188 0.0 0.0 0.00 0.01 0.00 86 1013.0
20260905042456 81 188 0.0 0.0 0.00 0.01 0.00 86 1012.9
20260905041956 81 188 0.0 0.0 0.00 0.01 0.00 86 1012.8
20260905041456 81 188 0.0 0.0 0.00 0.01 0.00 86 1012.9
20260905040956 81 188 0.0 0.0 0.00 0.01 0.00 86 1012.9
20260905040456 81 188 0.0 0.0 0.00 0.01 0.00 86 1013.0
20260905035956 81 188 0.0 0.0 0.00 0.01 0.00 85 1013.1
20260905035456 81 188 0.0 0.0 0.00 0.01 0.00 85 1013.0
20260905034956 81 188 0.0 0.0 0.00 0.01 0.00 85 1013.0
20260905034456 81 188 0.0 0.0 0.00 0.01 0.00 85 1013.1
20260905033956 81 188 0.0 0.0 0.00 0.01 0.00 85 1013.2
20260905033456 81 188 0.0 0.0 0.00 0.01 0.00 84 1013.1
20260905032959 81 188 0.0 0.0 0.00 0.01 0.00 84 1013.1
20260905032456 81 188 0.0 0.0 0.00 0.01 0.00 84 1013.2
20260905031956 81 188 0.0 0.0 0.00 0.01 0.00 84 1013.3
20260905031459 81 188 0.0 0.0 0.00 0.01 0.00 83 1013.3
20260905030956 81 188 0.0 0.0 0.00 0.01 0.00 83 1013.1
20260905030456 81 188 0.0 0.0 0.00 0.01 0.00 83 1013.2
20260905025956 81 188 0.0 0.0 0.00 0.01 0.00 83 1013.1
20260905025456 81 188 0.0 0.0 0.00 0.01 0.00 82 1013.0
20260905024956 81 188 0.0 0.0 0.00 0.01 0.00 81 1013.0
20260905024456 81 188 0.0 0.0 0.00 0.01 0.00 81 1013.0
20260905023956 81 188 0.0 0.0 0.00 0.01 0.00 80 1012.9
20260905023456 81 188 0.0 0.0 0.00 0.01 0.00 80 1012.8
20260905022959 81 188 0.0 0.0 0.00 0.01 0.00 80 1012.9
20260905022456 82 188 0.0 0.0 0.00 0.01 0.00 79 1012.9
20260905021956 82 188 0.0 0.0 0.00 0.01 0.00 79 1012.8
20260905021456 82 188 0.0 0.0 0.00 0.01 0.00 78 1012.6
20260905020957 82 188 0.0 0.0 0.00 0.01 0.00 78 1012.7
20260905020456 82 188 0.0 0.0 0.00 0.01 0.00 77 1012.5
20260905015956 82 188 0.0 0.0 0.00 0.01 0.00 76 1012.5
20260905015456 82 188 0.0 0.0 0.00 0.01 0.00 76 1012.4
20260905014956 83 188 0.0 0.0 0.00 0.01 0.00 76 1012.5
20260905014456 83 188 0.0 0.0 0.00 0.01 0.00 75 1012.4
20260905013956 83 188 0.0 0.0 0.00 0.01 0.00 75 1012.3
20260905013456 83 188 0.0 0.0 0.00 0.01 0.00 74 1012.3
20260905012956 83 188 0.0 0.0 0.00 0.01 0.00 73 1012.3
20260905012456 84 188 0.0 1.0 0.00 0.01 0.00 73 1012.3
20260905011956 84 188 0.0 1.0 0.00 0.01 0.00 72 1012.4
20260905011456 84 188 0.0 2.0 0.00 0.01 0.00 73 1012.3
20260905010956 85 188 0.0 2.0 0.00 0.01 0.00 75 1012.4
20260905010456 85 188 0.0 2.0 0.00 0.01 0.00 76 1012.5
20260905005956 85 188 0.0 1.0 0.00 0.01 0.00 75 1012.3
20260905005456 86 188 1.0 1.0 0.00 0.01 0.00 74 1012.4
20260905004959 86 188 1.0 1.0 0.00 0.01 0.00 73 1012.1
20260905004456 86 188 0.0 0.0 0.00 0.01 0.00 72 1011.9
20260905003956 86 188 0.0 1.0 0.00 0.01 0.00 72 1012.0
20260905003456 86 188 1.0 2.0 0.00 0.01 0.00 70 1011.8
20260905002959 87 188 1.0 1.0 0.00 0.01 0.00 71 1011.6
20260905002456 87 188 0.0 0.0 0.00 0.01 0.00 71 1011.6
20260905001955 87 188 0.0 0.0 0.00 0.01 0.00 73 1011.6
20260905001455 87 188 0.0 1.0 0.00 0.01 0.00 71 1011.6
20260905000956 87 188 0.0 1.0 0.00 0.01 0.00 71 1011.5
20260905000455 87 165 0.0 0.0 0.00 0.01 0.00 71 1011.5
20260904235955 87 165 0.0 0.0 0.00 0.01 0.00 70 1011.6
20260904235456 88 165 0.0 0.0 0.00 0.01 0.00 69 1011.7
20260904234957 88 165 0.0 0.0 0.00 0.01 0.00 69 1011.8
20260904234456 88 165 0.0 1.0 0.00 0.01 0.00 69 1011.7
20260904233956 88 165 0.0 1.0 0.00 0.01 0.00 68 1011.7
20260904233456 88 165 0.0 1.0 0.00 0.01 0.00 68 1011.7
20260904232956 88 165 0.0 2.0 0.00 0.01 0.00 68 1011.8
20260904232455 89 165 1.0 2.0 0.00 0.01 0.00 70 1011.8
20260904231955 89 165 0.0 0.0 0.00 0.01 0.00 69 1011.7
20260904231456 88 165 0.0 0.0 0.00 0.01 0.00 69 1011.6
20260904230956 88 165 0.0 1.0 0.00 0.01 0.00 71 1011.7
20260904230455 87 165 0.0 0.0 0.00 0.01 0.00 72 1011.6
20260904225955 87 165 0.0 1.0 0.00 0.01 0.00 71 1011.8
20260904225456 87 165 0.0 0.0 0.00 0.01 0.00 72 1011.6
20260904224956 87 165 0.0 1.0 0.00 0.01 0.00 71 1011.8
20260904224456 87 165 0.0 2.0 0.00 0.01 0.00 70 1011.7
20260904223956 88 162 0.0 1.0 0.00 0.01 0.00 69 1011.7
20260904223459 88 163 0.0 0.0 0.00 0.01 0.00 70 1011.8
20260904222955 89 163 0.0 1.0 0.00 0.01 0.00 68 1011.8
20260904222456 89 163 0.0 4.0 0.00 0.01 0.00 67 1011.8
20260904221959 90 157 0.0 5.0 0.00 0.01 0.00 66 1012.0
20260904221455 92 168 2.0 4.0 0.00 0.01 0.00 65 1011.9
20260904220956 92 165 2.0 2.0 0.00 0.01 0.00 63 1012.0
20260904220455 92 284 0.0 2.0 0.00 0.01 0.00 62 1012.0
20260904215956 92 289 2.0 2.0 0.00 0.01 0.00 63 1012.0
20260904215456 91 279 1.0 1.0 0.00 0.01 0.00 64 1012.1
20260904214956 91 282 0.0 1.0 0.00 0.01 0.00 65 1011.9
20260904214455 91 282 0.0 1.0 0.00 0.01 0.00 63 1011.7
20260904213955 91 282 0.0 1.0 0.00 0.01 0.00 64 1011.9
20260904213456 91 282 0.0 1.0 0.00 0.01 0.00 63 1011.9
20260904212956 91 282 0.0 0.0 0.00 0.01 0.00 64 1011.9
20260904212455 91 281 0.0 0.0 0.00 0.01 0.00 67 1012.0
20260904211955 91 282 0.0 1.0 0.00 0.01 0.00 63 1012.0
20260904211459 91 282 0.0 1.0 0.00 0.01 0.00 67 1012.2
20260904210956 91 282 0.0 0.0 0.00 0.01 0.00 66 1012.3
20260904210456 91 282 0.0 0.0 0.00 0.01 0.00 65 1012.3
20260904205957 91 282 0.0 1.0 0.00 0.01 0.00 64 1012.4
20260904205459 91 282 0.0 1.0 0.00 0.01 0.00 65 1012.6
20260904204959 91 282 0.0 2.0 0.00 0.01 0.00 66 1012.7
20260904204459 91 282 2.0 2.0 0.00 0.01 0.00 67 1012.7
20260904203956 90 283 0.0 1.0 0.00 0.02 0.00 67 1012.8
20260904203459 90 282 0.0 2.0 0.00 0.02 0.00 69 1012.9
20260904202956 90 298 1.0 1.0 0.00 0.02 0.00 68 1012.9
20260904202456 90 286 1.0 2.0 0.00 0.02 0.00 69 1012.9
20260904201956 90 282 2.0 3.0 0.00 0.02 0.00 69 1013.0
20260904201455 90 283 2.0 2.0 0.00 0.03 0.00 69 1012.9
20260904200959 89 284 0.0 1.0 0.00 0.03 0.00 71 1013.0
20260904200458 89 284 2.0 3.0 0.00 0.03 0.00 71 1013.1
20260904195959 88 208 0.0 1.0 0.00 0.04 0.00 74 1013.1
20260904195455 87 208 0.0 2.0 0.00 0.04 0.00 73 1013.3
20260904194956 87 208 0.0 0.0 0.00 0.04 0.00 76 1013.2
20260904194456 85 208 0.0 0.0 0.00 0.04 0.00 77 1013.2
20260904193956 84 158 0.0 1.0 0.00 0.04 0.00 82 1013.3
20260904193456 83 158 0.0 1.0 0.00 0.04 0.00 82 1013.3
20260904192955 82 158 0.0 0.0 0.00 0.04 0.00 82 1013.3
20260904192455 82 158 0.0 0.0 0.00 0.04 0.00 83 1013.4
20260904191956 82 158 0.0 0.0 0.00 0.04 0.00 83 1013.6
20260904191456 81 158 0.0 0.0 0.00 0.04 0.00 83 1013.8
20260904190955 81 158 0.0 1.0 0.00 0.05 0.00 83 1013.8
20260904190459 81 158 0.0 2.0 0.00 0.06 0.00 84 1014.0
20260904185956 80 5 0.0 0.0 0.00 0.08 0.00 86 1014.1
20260904185458 80 5 0.0 0.0 0.00 0.10 0.00 86 1014.3
20260904184956 80 5 0.0 0.0 0.00 0.11 0.00 85 1014.3
20260904184455 80 5 0.0 0.0 0.00 0.11 0.00 84 1014.5
20260904183957 80 5 0.0 0.0 0.00 0.11 0.00 84 1014.6
20260904183456 79 5 0.0 0.0 0.00 0.11 0.00 84 1014.4
20260904182955 79 5 0.0 0.0 0.00 0.11 0.00 83 1014.4
20260904182456 79 5 0.0 0.0 0.00 0.11 0.00 83 1014.7
20260904181955 79 5 0.0 0.0 0.00 0.13 0.00 81 1015.0
20260904181456 79 5 0.0 1.0 0.00 0.13 0.00 81 1015.1
20260904180956 79 5 0.0 0.0 0.00 0.13 0.00 80 1015.0
20260904180456 79 5 0.0 1.0 0.00 0.13 0.00 79 1015.1
20260904175959 79 5 0.0 3.0 0.00 0.13 0.00 78 1015.0
20260904175456 79 278 0.0 2.0 0.00 0.15 0.00 77 1014.8
20260904174956 80 278 1.0 2.0 0.00 0.15 0.00 77 1015.0